Regional Weather Roundup
Issued by NWS

Home | Current Version | Previous Version | Graphics & Text | Print | Product List | Glossary On
Versions: 1 2 3 4 5 6 7 8 9 10 11 12 13 14 15 16 17 18 19 20 21 22 23 24 25 26 27 28 29 30 31 32 33 34 35 36 37 38 39 40 41 42 43 44 45 46 47
000
ASUS45 KBOU 211210
RWRCO

WEATHER ROUNDUP FOR COLORADO
NATIONAL WEATHER SERVICE PUEBLO CO
500 AM MST WED FEB 21 2018

NOTE: "FAIR" INDICATES FEW OR NO CLOUDS BELOW 12000 FEET WITH NO
SIGNIFICANT WEATHER AND/OR OBSTRUCTIONS TO VISIBILITY.

COZ001>005-013-030-031-211300-
...NORTHWEST COLORADO...

CITY           SKY/WX    TMP DP  RH WIND       PRES   REMARKS
CRAIG          CLEAR    -16 -21  78 VRB3      30.14R
HAYDEN         CLEAR     -1  -8  72 E15       30.11R WCI -21
MEEKER         CLEAR    -10 -15  78 CALM      30.11R
RABBIT EARS PA NOT AVBL
STEAMBOAT SPGS   N/A     -7 -11  83 CALM      30.09R
WALDEN         FAIR      -8 -13  77 SE7       30.02S WCI -22
$$

COZ006>008-011-211300-
...WEST CENTRAL VALLEYS...

CITY           SKY/WX    TMP DP  RH WIND       PRES   REMARKS
GRAND JUNCTION   N/A    N/A N/A N/A MISG      30.15S
MONTROSE       CLEAR      4  -1  80 SE6       30.18R WCI  -7
EAGLE          CLEAR      3  -1  83 SE5       30.17R WCI  -6
RIFLE          CLOUDY     8   3  80 CALM      30.16S
DELTA          NOT AVBL
NUCLA          FAIR      12   5  73 SE6       30.16S WCI   3
$$

COZ017>023-064>068-211300-
...SOUTHWEST COLORADO...

CITY           SKY/WX    TMP DP  RH WIND       PRES   REMARKS
DURANGO        CLEAR      9   4  80 S3        30.11S
CORTEZ         CLEAR      9   4  80 CALM      30.10F
PAGOSA SPRINGS FAIR       2  -1  88 CALM      30.10R
TELLURIDE      PTCLDY     9  -8  46 CALM      30.02F
WOLF CREEK PAS   N/A     -2  -4  92 S17G24    29.97S WCI -24
$$

COZ009-010-012-014-032>034-037-058>063-211300-
...CENTRAL COLORADO...

CITY           SKY/WX    TMP DP  RH WIND       PRES   REMARKS
ASPEN          CLEAR     -5 -11  75 CALM      30.05R
BUENA VISTA    FAIR       0  -9  64 NW5       30.07R WCI -10
COPPER MTN     CLEAR      0 -13  55 S15       29.86R WCI -20
BERTHOUD PASS  FAIR      -9 -18  64 MISG      29.81R
COTTONWOOD PAS CLEAR     12  -6  44 W6        29.96S WCI   3
GUNNISON       CLEAR     -5  -9  83 S3        30.13R
KREMMLING      LGT SNOW   1  -4  78 CALM      30.11R
LEADVILLE      CLEAR    -17 -20  86 E5        29.95R WCI -30
MONARCH PASS   CLEAR     -4  -8  84 SW25      29.97S WCI -30
SALIDA         FAIR       9   1  72 NW7       30.15S WCI  -3
SUNLIGHT       PTCLDY    -2  -8  78 SW7       29.98R WCI -16
WILKERSON PASS PTCLDY     0  -8  71 SW21G29   29.89F WCI -23
$$

COZ069>075-211300-
...SAN LUIS VALLEY/SANGRE DE CRISTO MOUNTAINS...

CITY           SKY/WX    TMP DP  RH WIND       PRES   REMARKS
ALAMOSA        PTCLDY     1  -4  79 NW3       30.09S
DEL NORTE      FAIR       3  -6  65 W17       30.09R WCI -17
LA VETA PASS   CLEAR      9   3  78 S20G40    30.06R WCI -11
SAGUACHE       CLEAR      1  -6  71 NW12      30.10R WCI -15
$$

COZ035-036-038>040-211300-
...NORTHERN COLORADO FRONT RANGE...

CITY           SKY/WX    TMP DP  RH WIND       PRES   REMARKS
DENVER INTL AP PTCLDY    -2  -7  79 S3        30.17R
DMNS CITY PARK NOT AVBL
AURORA         PTCLDY     0  -3  86 SW3       30.15R
FRONT RANGE AP FAIR      -1  -5  82 CALM      30.17R
ERIE MUNI ARPT FAIR      -6 -10  81 CALM      30.26R
BOULDER MUN AP FAIR       3   0  85 CALM      30.18R
CENTENNIAL     CLEAR      2  -1  88 CALM      30.13R
BROOMFIELD     CLEAR      1  -2  85 W7        30.15S WCI -11
LOVELAND       CLEAR     -2  -5  87 W3        30.20S
LONGMONT       NOT AVBL
$$

COZ041-046-047-076>085-087-088-211300-
...PIKES PEAK/PALMER DIVIDE AND SOUTHERN FOOTHILLS...

CITY           SKY/WX    TMP DP  RH WIND       PRES   REMARKS
COLO. SPRINGS  PTCLDY     5   2  87 NW3       30.16S
A. F. ACADEMY  PTCLDY    -6 -11  79 N8        30.13R WCI -22
SCHRIEVER AFB  NOT AVBL
CHEYENNE MTN   NOT AVBL
ELLICOTT         N/A    N/A N/A N/A N3          N/A
FALCON         FLURRIES   1  -2  86 MISG      30.12R
FORT CARSON    CLEAR      5   0  81 NW9       30.16S WCI  -9
LIMON          CLEAR     -6  -9  86 N6        30.19R WCI -19
MONUMENT HILL  CLEAR      1  -2  85 S13       30.09R WCI -16
CANON CITY     FLURRIES  16  10  79 W5        30.20S WCI   9
WALSENBURG     PTSUNNY   12  10  92 SE5       30.16R WCI   4
TRINIDAD       CLEAR      6   2  83 W7        30.18R WCI  -6
$$

COZ042>045-048>051-090-091-211300-
...NORTHEAST COLORADO...

CITY           SKY/WX    TMP DP  RH WIND       PRES   REMARKS
GREELEY ARPT   CLEAR    -12 -16  82 W5        30.23F WCI -24
AKRON          CLEAR      8   0  69 S9        30.22S WCI  -5
BURLINGTON     CLEAR     -3  -8  79 W6        30.27S WCI -15
WRAY           FAIR       3   0  85 W5        30.31R WCI  -6
YUMA           NOT AVBL
STERLING       FAIR      -4  -8  84 CALM      30.26F
HOLYOKE        FAIR       5   0  78 W3        30.30S
FORT MORGAN    FAIR      -2  -8  75 CALM      30.24S
$$

COZ086-089-092>099-211300-
...SOUTHEAST COLORADO...

CITY           SKY/WX    TMP DP  RH WIND       PRES   REMARKS
PUEBLO         CLEAR      6   1  80 NW3       30.24S
LA JUNTA       CLEAR      5   2  87 W5        30.29R WCI  -4
LAMAR          CLEAR      0  -5  79 S7        30.32R WCI -13
SPRINGFIELD      N/A      1  -4  79 CALM      30.28R
$$





USA.gov is the U.S. government's official web portal to all federal, state and local government web resources and services.